Location: Utrecht
(52.0907°N, 5.1214°E)
Time: 02:57:53
(UTC+02:00)

KKS-1 - Pass Details

Date: 27 June 2022
Orbit: 634 x 649 km, 98.2° (Epoch: 15 August)

Event Time Altitude Azimuth Distance (km) Brightness Sun altitude
Rises 23:43:04 0° 16° (NNE) 2,981 ? -10.2°
Reaches altitude 10° 23:45:18 10° 19° (NNE) 2,066 ? -10.4°
Maximum altitude 23:49:48 70° 103° (ESE) 694 ? -10.7°
Enters shadow 23:54:11 10° 187° (S) 2,017 ? -11.0°
